Location: Newark
(45.9456°N, 15.4064°E)
Time: 14:57:00
(UTC+00:00)

SR - Pass Details

Date: 03 February 2020
Orbit: 575 x 880 km, 66.7° (Epoch: 22 February)

Event Time Altitude Azimuth Distance (km) Brightness Sun altitude
Rises 02:02:52 0° 330° (NNW) 3,424 - -44.1°
Reaches altitude 10° 02:05:59 10° 346° (NNW) 2,444 - -43.6°
Maximum altitude 02:10:18 22° 36° (NE) 1,684 - -42.9°
Exits shadow 02:13:19 14° 77° (ENE) 2,027 ? -42.5°
Drops below altitude 10° 02:14:23 10° 86° (E) 2,290 ? -42.3°
Sets 02:17:11 0° 102° (ESE) 3,152 ? -41.8°
